Skip Page Navigation
NASA JPL Caltech
NASA Logo - Jet Propulsion Laboratory + View the NASA Portal
+ Center for Near-Earth Object Studies
JPL Home Earth Solar System Stars & Galaxies Technology
JPL Solar System Dynamics
BODIES ORBITS EPHEMERIDES TOOLS PHYSICAL DATA DISCOVERY FAQ SITE MAP
IMPORTANT: The SSD Announcement email list is now available. Major changes are coming in the near future, including possible hostname and/or URL changes. To be notified of such changes, subscribe to this email list.

Please visit this page for more details.


JPL Small-Body Database Browser
Search: [ help ]  
410790 (2009 HE23)
Classification: Main-belt Asteroid          SPK-ID: 2410790
Ephemeris | Orbit Diagram | Orbital Elements | Mission Design | Physical Parameters | Discovery Circumstances ]

[ show orbit diagram ]
Orbital Elements at Epoch 2458600.5 (2019-Apr-27.0) TDB
Reference: JPL 14 (heliocentric ecliptic J2000)
 Element Value Uncertainty (1-sigma)   Units 
e .07214523762803358 4.7699e-08  
a 2.32615913644032 2.1253e-08 au
q 2.158337832781211 1.1832e-07 au
i 7.261053580766355 4.9097e-06 deg
node 155.8263078084535 3.8904e-05 deg
peri 278.1000932619018 5.8375e-05 deg
M 71.89586850263306 4.2555e-05 deg
tp 2458341.703145309330
(2018-Aug-11.20314531)
0.000152 TDB
period 1295.858435665594
3.55
1.776e-05
4.862e-08
d
yr
n .2778081232423297 3.8073e-09 deg/d
Q 2.493980440099429 2.2787e-08 au
  Orbit Determination Parameters
   # obs. used (total)      154  
   data-arc span      5115 days (14.00 yr)  
   first obs. used      2005-02-02  
   last obs. used      2019-02-04  
   planetary ephem.      DE431  
   SB-pert. ephem.      SB431-N16  
   condition code      0  
   norm. resid. RMS      .55503  
   source      ORB  
   producer      Otto Matic  
   solution date      2019-Jul-14 12:15:32  

Additional Information
 Earth MOID = 1.18729 au 
 Jupiter MOID = 2.6626 au 
 T_jup = 3.560 
[ show covariance matrix ]

Ephemeris | Orbit Diagram | Orbital Elements | Mission Design | Physical Parameters | Discovery Circumstances ]

Physical Parameter Table
Parameter Symbol Value Units Sigma Reference Notes
absolute magnitude H 17.3   n/a MPO419026  

410790 (2009 HE23)          Discovered 2005-Feb-02 by Spacewatch at Kitt Peak
Reference: Last Updated: 2014-10-09

Alternate Designations
 2009 HE23 = 2005 CE51 = 2010 QT4 = 2012 BJ125 
Ephemeris | Orbit Diagram | Orbital Elements | Mission Design | Physical Parameters | Discovery Circumstances ]
ABOUT SSD CREDITS/AWARDS PRIVACY/COPYRIGHT GLOSSARY LINKS
FirstGov 2020-Jan-19 21:46 UT
(server date/time)  
NASA Home Page
Site Manager:   Ryan S. Park
Webmaster  Alan B. Chamberlin